カタログに戻る

STARLINK-4636

運用中通信VLEO
NORAD 53731·PAYLOAD·🇺🇸 United States

打ち上げ Sep 5, 2022 から Cape Canaveral Space Force Station

Loading…

次のパス (今後24時間)

TLE

最新Source: CelesTrak SupGP

元期: Sep 14, 2026, 21:31 UTC

1 53731C 22107AH  26257.89701389  .00010957  00000+0  49422-3 0  2570
2 53731  53.2104 114.3163 0004077  38.7972  53.3239 15.20482937    16

AllMySatでSTARLINK-4636をリアルタイム追跡

Download on the App Store